EW9485 Weather Reports


Display with metric or nautical units.
time (UTC)temp
F
wind
direction
speed
MPH
gust
MPH
rain 1hr
in
rain 24hr
in
rain mn
in
humidity
%
barometer
mb
20260510084558 67 75 2.0 5.0 0.00 0.45 0.00 91 1013.7
20260510084048 67 22 1.0 8.0 0.00 0.45 0.00 91 1014.0
20260510083547 67 26 3.0 8.0 0.00 0.45 0.00 91 1013.8
20260510083106 67 28 3.0 5.0 0.00 0.45 0.00 91 1013.8
20260510082546 67 28 2.0 5.0 0.00 0.45 0.00 91 1013.8
20260510082047 67 17 3.0 5.0 0.00 0.45 0.00 91 1013.6
20260510081556 67 0 0.0 8.0 0.00 0.45 0.00 91 1013.5
20260510081047 67 36 3.0 8.0 0.00 0.45 0.00 91 1013.6
20260510080548 67 24 5.0 8.0 0.00 0.45 0.00 91 1013.5
20260510080056 67 31 3.0 7.0 0.00 0.45 0.00 91 1013.6
20260510075546 67 13 3.0 8.0 0.00 0.45 0.00 90 1013.6
20260510075047 67 11 3.0 8.0 0.00 0.45 0.00 90 1013.6
20260510074547 67 344 3.0 7.0 0.00 0.45 0.00 91 1013.5
20260510074048 67 10 3.0 7.0 0.00 0.45 0.00 90 1013.5
20260510073548 67 11 3.0 5.0 0.00 0.45 0.00 91 1013.5
20260510073056 67 30 2.0 5.0 0.00 0.45 0.00 90 1013.3
20260510072547 67 27 2.0 5.0 0.00 0.45 0.00 90 1013.2
20260510072048 67 0 0.0 8.0 0.00 0.45 0.00 90 1013.1
20260510071550 67 30 3.0 8.0 0.00 0.45 0.00 90 1013.0
20260510071047 67 44 3.0 5.0 0.00 0.45 0.00 90 1013.1
20260510070547 67 34 1.0 5.0 0.00 0.45 0.00 90 1013.1
20260510065547 67 5 1.0 4.0 0.00 0.45 0.00 90 1013.0
20260510065047 67 14 1.0 5.0 0.00 0.45 0.00 90 1013.2
20260510064605 67 20 1.0 5.0 0.00 0.45 0.00 90 1013.2
20260510064047 67 38 2.0 4.0 0.00 0.45 0.00 90 1013.1
20260510063547 67 25 1.0 5.0 0.00 0.45 0.00 90 1013.2
20260510063053 67 0 2.0 5.0 0.00 0.45 0.00 90 1013.3
20260510062550 67 28 3.0 5.0 0.00 0.45 0.00 90 1013.2
20260510062047 67 19 0.0 4.0 0.00 0.45 0.00 90 1013.1
20260510061553 67 44 0.0 4.0 0.00 0.45 0.00 90 1013.1
20260510061048 67 17 2.0 4.0 0.00 0.45 0.00 90 1013.3
20260510060550 67 34 2.0 4.0 0.00 0.45 0.00 90 1013.4
20260510060055 67 37 2.0 4.0 0.00 0.45 0.00 90 1013.5
20260510055548 67 33 1.0 3.0 0.00 0.45 0.00 90 1013.5
20260510055048 67 33 1.0 3.0 0.00 0.45 0.00 90 1013.5
20260510054554 67 0 0.0 0.0 0.00 0.45 0.00 90 1013.4
20260510054046 67 0 0.0 0.0 0.00 0.45 0.00 90 1013.6
20260510053547 67 0 0.0 0.0 0.00 0.45 0.00 90 1013.5
20260510053051 67 0 0.0 3.0 0.00 0.45 0.00 90 1013.7
20260510052547 67 0 0.0 4.0 0.00 0.45 0.00 90 1013.8
20260510052047 67 15 1.0 4.0 0.00 0.45 0.00 89 1013.8
20260510051550 67 15 1.0 3.0 0.00 0.45 0.00 89 1014.0
20260510051050 67 0 0.0 1.0 0.00 0.45 0.00 89 1014.0
20260510050550 67 0 0.0 2.0 0.00 0.45 0.00 89 1013.9
20260510050049 67 0 0.0 2.0 0.00 0.45 0.00 89 1013.7
20260510045548 67 0 0.0 4.0 0.00 0.45 0.45 89 1013.6
20260510045047 67 0 1.0 4.0 0.00 0.45 0.45 89 1013.5
20260510044604 67 82 0.0 5.0 0.00 0.45 0.45 89 1013.5
20260510044047 67 0 2.0 7.0 0.00 0.45 0.45 89 1013.6
20260510043547 67 74 2.0 7.0 0.00 0.45 0.45 89 1013.7
20260510043051 67 71 2.0 6.0 0.00 0.45 0.45 89 1013.5
20260510042548 67 103 1.0 7.0 0.00 0.45 0.45 89 1013.5
20260510042047 67 90 1.0 7.0 0.00 0.45 0.45 89 1013.6
20260510041604 67 86 2.0 7.0 0.00 0.45 0.45 89 1013.6
20260510041048 67 95 3.0 7.0 0.00 0.45 0.45 89 1013.6
20260510040547 67 0 3.0 9.0 0.00 0.45 0.45 89 1013.6
20260510040052 67 93 4.0 9.0 0.00 0.45 0.45 89 1013.6
20260510035547 67 115 1.0 4.0 0.00 0.45 0.45 89 1013.6
20260510035048 67 88 0.0 8.0 0.00 0.45 0.45 89 1013.9
20260510034603 67 0 3.0 8.0 0.00 0.45 0.45 89 1013.8
20260510034047 67 89 2.0 11.0 0.00 0.45 0.45 89 1013.6
20260510033548 67 99 3.0 11.0 0.00 0.45 0.45 89 1013.4
20260510033057 68 75 4.0 9.0 0.00 0.45 0.45 89 1013.1
20260510032547 67 76 2.0 5.0 0.00 0.45 0.45 89 1013.7
20260510032047 68 49 0.0 9.0 0.00 0.45 0.45 89 1014.0
20260510031551 67 59 3.0 10.0 0.00 0.45 0.45 89 1013.9
20260510031046 68 63 5.0 10.0 0.00 0.45 0.45 89 1012.9
20260510030547 68 63 3.0 6.0 0.00 0.45 0.45 89 1013.5
20260510030057 68 55 2.0 6.0 0.00 0.45 0.45 89 1014.3
20260510025548 68 27 4.0 6.0 0.00 0.45 0.45 89 1013.9
20260510025118 68 25 2.0 5.0 0.00 0.45 0.45 89 1014.1
20260510024557 68 39 3.0 6.0 0.00 0.45 0.45 89 1014.4
20260510024049 68 26 3.0 6.0 0.00 0.45 0.45 89 1014.4
20260510023551 68 46 2.0 5.0 0.00 0.45 0.45 88 1014.0
20260510023050 68 72 1.0 3.0 0.00 0.45 0.45 88 1014.3
20260510022547 68 0 0.0 4.0 0.00 0.45 0.45 88 1014.4
20260510022051 68 0 1.0 4.0 0.00 0.45 0.45 88 1014.5
20260510021555 68 73 0.0 5.0 0.00 0.45 0.45 88 1014.4
20260510021046 68 32 1.0 5.0 0.00 0.45 0.45 88 1014.5
20260510020547 68 27 2.0 5.0 0.00 0.45 0.45 88 1014.6
20260510020056 68 327 2.0 6.0 0.00 0.45 0.45 88 1014.8
20260510015547 68 320 3.0 6.0 0.00 0.45 0.45 88 1014.7
20260510015048 68 19 3.0 5.0 0.00 0.45 0.45 88 1014.1
20260510014556 68 293 0.0 5.0 0.00 0.45 0.45 88 1014.3
20260510014048 68 294 1.0 6.0 0.00 0.45 0.45 88 1014.6
20260510013548 68 37 2.0 6.0 0.00 0.45 0.45 88 1013.5
20260510013101 68 38 3.0 5.0 0.00 0.45 0.45 88 1013.8
20260510012548 68 335 1.0 4.0 0.00 0.45 0.45 88 1014.2
20260510012048 68 328 1.0 4.0 0.00 0.45 0.45 88 1014.3
20260510011555 68 0 1.0 4.0 0.00 0.45 0.45 88 1014.0
20260510011047 68 24 2.0 4.0 0.00 0.45 0.45 88 1013.8
20260510010546 68 0 0.0 4.0 0.00 0.45 0.45 88 1013.8
20260510010053 68 0 2.0 5.0 0.00 0.45 0.45 88 1013.7
20260510005547 68 334 1.0 6.0 0.00 0.45 0.45 88 1013.8
20260510005046 68 19 3.0 6.0 0.00 0.45 0.45 88 1013.6
20260510004550 68 325 3.0 5.0 0.00 0.45 0.45 88 1013.6
20260510004047 68 360 3.0 5.0 0.00 0.45 0.45 88 1013.5
20260510003554 68 19 2.0 4.0 0.00 0.45 0.45 88 1013.4
20260510003056 68 22 1.0 5.0 0.00 0.45 0.45 88 1013.2
20260510002546 68 13 2.0 5.0 0.00 0.45 0.45 88 1013.2
20260510002046 68 9 2.0 5.0 0.00 0.45 0.45 88 1013.3
20260510001551 68 12 3.0 5.0 0.00 0.45 0.45 88 1013.2
20260510001053 68 28 2.0 5.0 0.00 0.45 0.45 87 1013.1
20260510000547 68 5 3.0 7.0 0.00 0.45 0.45 87 1013.0
20260510000057 68 34 3.0 7.0 0.00 0.45 0.45 87 1012.9
20260509235548 68 349 3.0 7.0 0.00 0.45 0.45 87 1012.9
20260509235047 68 10 3.0 6.0 0.00 0.45 0.45 87 1012.9
20260509234603 68 70 2.0 6.0 0.00 0.45 0.45 87 1012.8
20260509234047 68 71 3.0 8.0 0.00 0.45 0.45 87 1012.5
20260509233547 68 106 3.0 8.0 0.00 0.45 0.45 87 1012.4
20260509233056 68 111 3.0 10.0 0.00 0.45 0.45 87 1012.3
20260509232547 68 129 3.0 10.0 0.00 0.45 0.45 87 1012.3
20260509232047 68 138 3.0 11.0 0.00 0.45 0.45 88 1012.2
20260509231605 68 119 2.0 11.0 0.00 0.45 0.45 88 1012.2
20260509231050 68 137 4.0 11.0 0.00 0.45 0.45 88 1012.2
20260509230546 68 158 4.0 12.0 0.00 0.45 0.45 88 1012.0
20260509225549 68 108 6.0 12.0 0.00 0.45 0.45 88 1012.1
20260509225047 68 138 5.0 11.0 0.00 0.45 0.45 88 1012.3
20260509224556 68 124 3.0 10.0 0.00 0.45 0.45 88 1012.3
20260509224051 68 161 4.0 13.0 0.00 0.45 0.45 88 1012.1
20260509223549 68 117 5.0 13.0 0.00 0.45 0.45 88 1012.0
20260509223052 68 114 4.0 12.0 0.00 0.45 0.45 88 1012.0
20260509222550 68 107 6.0 12.0 0.00 0.45 0.45 88 1012.0
20260509222048 68 107 3.0 13.0 0.00 0.45 0.45 88 1012.1
20260509221554 68 101 5.0 13.0 0.01 0.45 0.45 88 1012.0
20260509221049 68 137 8.0 13.0 0.01 0.45 0.45 88 1012.0
20260509220546 68 141 4.0 11.0 0.01 0.45 0.45 88 1011.9
20260509220056 68 121 4.0 12.0 0.01 0.45 0.45 88 1011.8
20260509215549 68 138 3.0 12.0 0.01 0.45 0.45 88 1011.8
20260509215047 68 101 5.0 16.0 0.01 0.45 0.45 88 1011.9
20260509214550 68 163 6.0 16.0 0.01 0.45 0.45 89 1011.6
20260509214047 68 143 6.0 16.0 0.01 0.45 0.45 89 1011.6
20260509213548 67 123 7.0 16.0 0.01 0.45 0.45 89 1011.6
20260509213055 67 147 6.0 16.0 0.01 0.45 0.45 89 1011.6
20260509212548 67 120 8.0 16.0 0.01 0.45 0.45 88 1011.5
20260509212049 67 107 6.0 14.0 0.01 0.45 0.45 88 1011.4
20260509211559 67 101 8.0 14.0 0.00 0.44 0.44 88 1011.6
20260509211048 67 113 6.0 12.0 0.01 0.44 0.44 88 1012.0
20260509210550 67 104 7.0 13.0 0.01 0.44 0.44 88 1012.3
20260509210107 67 114 4.0 13.0 0.01 0.44 0.44 88 1012.3
20260509205551 67 109 7.0 11.0 0.02 0.44 0.44 89 1012.2
20260509205047 67 98 6.0 12.0 0.03 0.44 0.44 88 1012.3
20260509204554 67 107 5.0 12.0 0.05 0.44 0.44 89 1012.2
20260509204047 67 84 4.0 11.0 0.07 0.44 0.44 89 1012.3
20260509203550 67 117 6.0 11.0 0.09 0.44 0.44 88 1012.3
20260509203056 67 71 5.0 11.0 0.11 0.44 0.44 88 1012.2
20260509202550 67 82 4.0 11.0 0.13 0.44 0.44 88 1012.5
20260509202049 67 86 3.0 11.0 0.13 0.44 0.44 88 1012.8
20260509201557 67 78 4.0 11.0 0.13 0.44 0.44 88 1012.8
20260509201047 67 84 3.0 7.0 0.12 0.43 0.43 88 1012.9
20260509200547 67 90 2.0 8.0 0.12 0.43 0.43 89 1013.2
20260509195550 66 130 3.0 11.0 0.11 0.42 0.42 88 1013.2
20260509195047 66 106 5.0 11.0 0.10 0.41 0.41 88 1012.7
20260509194552 66 86 5.0 12.0 0.08 0.39 0.39 88 1012.9
20260509194047 66 46 5.0 15.0 0.06 0.37 0.37 88 1012.7
20260509193544 66 34 8.0 15.0 0.04 0.35 0.35 88 1012.8
20260509193057 66 5 6.0 13.0 0.02 0.33 0.33 88 1013.3
20260509192544 66 53 5.0 13.0 0.00 0.31 0.31 88 1013.6
20260509192048 66 24 6.0 13.0 0.00 0.31 0.31 88 1013.6
20260509191556 66 63 6.0 15.0 0.00 0.31 0.31 88 1013.7
20260509191047 66 9 7.0 15.0 0.01 0.31 0.31 88 1014.1
20260509190548 66 34 8.0 15.0 0.01 0.31 0.31 88 1014.3
20260509190107 66 20 7.0 18.0 0.01 0.31 0.31 88 1014.3
20260509185547 66 21 9.0 18.0 0.01 0.31 0.31 88 1014.3
20260509185047 66 11 10.0 14.0 0.01 0.31 0.31 89 1014.4
20260509184557 66 348 8.0 14.0 0.01 0.31 0.31 89 1014.4
20260509184047 66 27 9.0 18.0 0.02 0.31 0.31 89 1014.3
20260509183548 66 360 8.0 18.0 0.03 0.31 0.31 89 1014.3
20260509183056 66 46 8.0 18.0 0.05 0.31 0.31 89 1014.3
20260509182544 66 33 8.0 20.0 0.09 0.31 0.31 89 1014.5
20260509182047 66 5 11.0 20.0 0.12 0.31 0.31 89 1014.3
20260509181550 66 62 9.0 17.0 0.16 0.31 0.31 89 1014.4
20260509181047 66 360 11.0 16.0 0.19 0.30 0.30 89 1014.4
20260509180549 66 22 10.0 16.0 0.26 0.30 0.30 89 1014.3
20260509175548 66 9 9.0 16.0 0.28 0.30 0.30 89 1014.5
20260509175048 66 20 10.0 16.0 0.28 0.30 0.30 88 1014.9
20260509174555 66 5 6.0 15.0 0.28 0.30 0.30 88 1015.0
20260509174046 65 360 8.0 15.0 0.28 0.29 0.29 88 1015.2
20260509173546 65 10 9.0 18.0 0.27 0.28 0.28 88 1015.1
20260509173056 65 28 10.0 18.0 0.25 0.26 0.26 88 1015.3
20260509172547 66 27 9.0 21.0 0.21 0.21 0.21 87 1015.3
20260509172047 66 11 10.0 22.0 0.19 0.19 0.19 87 1015.1
20260509171555 66 9 12.0 22.0 0.14 0.14 0.14 86 1015.0
20260509171046 67 360 12.0 25.0 0.11 0.11 0.11 86 1015.1
20260509170546 67 25 11.0 25.0 0.04 0.04 0.04 85 1015.0
20260509165547 69 334 9.0 17.0 0.02 0.02 0.02 85 1014.7
20260509165046 70 42 9.0 17.0 0.02 0.02 0.02 84 1014.6
20260509164554 71 360 7.0 14.0 0.02 0.02 0.02 84 1014.5
20260509164049 72 71 8.0 14.0 0.01 0.01 0.01 84 1014.1
20260509163547 73 40 6.0 11.0 0.01 0.01 0.01 84 1014.2
20260509163106 73 360 5.0 11.0 0.01 0.01 0.01 84 1014.2
20260509162548 74 5 5.0 10.0 0.00 0.00 0.00 85 1014.2
20260509162047 74 58 2.0 5.0 0.00 0.00 0.00 85 1013.9
20260509161557 74 0 0.0 6.0 0.00 0.00 0.00 85 1014.2
20260509161051 74 82 2.0 8.0 0.00 0.00 0.00 85 1014.2
20260509160547 74 98 2.0 9.0 0.00 0.00 0.00 85 1014.1
20260509160058 74 67 3.0 9.0 0.00 0.00 0.00 85 1014.1
20260509155547 74 88 2.0 8.0 0.00 0.00 0.00 84 1014.0
20260509155049 74 82 2.0 8.0 0.00 0.00 0.00 84 1013.9
20260509154606 74 98 3.0 8.0 0.00 0.00 0.00 84 1013.9
20260509154046 74 103 4.0 8.0 0.00 0.00 0.00 84 1013.9
20260509153547 74 104 3.0 7.0 0.00 0.00 0.00 84 1013.9
20260509153056 74 107 2.0 6.0 0.00 0.00 0.00 83 1014.0
20260509152547 74 111 1.0 4.0 0.00 0.00 0.00 84 1014.1
20260509152045 73 111 1.0 4.0 0.00 0.00 0.00 84 1014.1
20260509151610 73 0 2.0 4.0 0.00 0.00 0.00 84 1013.9
20260509151048 73 171 0.0 4.0 0.00 0.00 0.00 84 1013.9
20260509150547 73 42 2.0 4.0 0.00 0.00 0.00 85 1013.9
20260509150110 72 102 1.0 4.0 0.00 0.00 0.00 85 1013.9
20260509145548 72 69 1.0 5.0 0.00 0.00 0.00 85 1013.8
20260509145046 72 86 2.0 6.0 0.00 0.00 0.00 85 1013.7
20260509144604 72 61 2.0 9.0 0.00 0.00 0.00 86 1013.8
20260509144048 72 65 4.0 9.0 0.00 0.00 0.00 86 1013.5
20260509143548 71 53 3.0 9.0 0.00 0.00 0.00 86 1013.5
20260509143105 71 25 3.0 9.0 0.00 0.00 0.00 86 1013.4
20260509142544 71 50 3.0 7.0 0.00 0.00 0.00 86 1013.4
20260509142048 71 80 3.0 7.0 0.00 0.00 0.00 86 1013.6
20260509141555 70 20 4.0 7.0 0.00 0.00 0.00 86 1013.6
20260509141046 70 24 2.0 7.0 0.00 0.00 0.00 86 1013.6
20260509140544 70 55 3.0 8.0 0.00 0.00 0.00 86 1013.4
20260509140104 70 80 4.0 9.0 0.00 0.00 0.00 86 1013.2
20260509135548 70 38 3.0 9.0 0.00 0.00 0.00 86 1013.4
20260509135048 69 74 3.0 11.0 0.00 0.00 0.00 86 1013.4
20260509134555 69 44 5.0 13.0 0.00 0.00 0.00 86 1013.6
20260509134047 69 19 5.0 13.0 0.00 0.00 0.00 86 1013.8
20260509133547 69 355 8.0 13.0 0.00 0.00 0.00 86 1014.1
20260509133100 69 5 5.0 12.0 0.00 0.00 0.00 86 1014.2
20260509132543 69 360 4.0 14.0 0.00 0.00 0.00 86 1013.7
20260509132048 69 5 8.0 14.0 0.00 0.00 0.00 86 1013.5
20260509131554 70 360 7.0 12.0 0.00 0.00 0.00 87 1013.3
20260509131048 70 24 6.0 14.0 0.00 0.00 0.00 87 1012.9
20260509130544 70 24 8.0 14.0 0.00 0.00 0.00 87 1012.8
20260509130058 70 34 5.0 10.0 0.00 0.00 0.00 87 1012.7
20260509125543 70 59 1.0 7.0 0.00 0.00 0.00 88 1012.4
20260509125047 70 82 2.0 7.0 0.00 0.00 0.00 88 1012.2
20260509124558 70 53 2.0 5.0 0.00 0.00 0.00 88 1012.2
20260509124049 70 78 2.0 5.0 0.00 0.00 0.00 88 1012.1
20260509123548 70 85 1.0 3.0 0.00 0.00 0.00 88 1011.9
20260509123103 69 143 0.0 5.0 0.00 0.00 0.00 88 1011.9
20260509122547 69 0 0.0 7.0 0.00 0.00 0.00 88 1011.8
20260509122044 69 153 3.0 7.0 0.00 0.00 0.00 88 1011.7
20260509121558 69 131 3.0 7.0 0.00 0.00 0.00 88 1011.6
20260509121049 68 132 2.0 6.0 0.00 0.00 0.00 88 1011.6
20260509120548 68 142 1.0 4.0 0.00 0.00 0.00 87 1011.8
20260509120052 68 143 0.0 4.0 0.00 0.00 0.00 87 1012.0
20260509115549 68 0 0.0 0.0 0.00 0.00 0.00 87 1011.8
20260509115047 67 0 0.0 1.0 0.00 0.00 0.00 87 1012.0
20260509114603 67 0 0.0 2.0 0.00 0.00 0.00 86 1012.1
20260509114046 67 0 0.0 2.0 0.00 0.00 0.00 86 1011.9
20260509113550 67 0 0.0 0.0 0.00 0.00 0.00 86 1011.7
20260509113059 67 0 0.0 0.0 0.00 0.00 0.00 86 1011.8
20260509112545 67 0 0.0 2.0 0.00 0.00 0.00 86 1011.7
20260509112046 67 0 0.0 2.0 0.00 0.00 0.00 86 1011.6
20260509111555 67 74 1.0 2.0 0.00 0.00 0.00 86 1011.3
20260509111047 68 69 0.0 3.0 0.00 0.00 0.00 85 1011.6
20260509110547 68 67 0.0 3.0 0.00 0.00 0.00 85 1011.8
20260509110053 68 68 1.0 4.0 0.00 0.00 0.00 85 1011.8
20260509105548 68 53 1.0 5.0 0.00 0.00 0.00 85 1011.9
20260509105045 68 30 2.0 5.0 0.00 0.00 0.00 85 1012.0
20260509104556 68 40 1.0 5.0 0.00 0.00 0.00 85 1011.8
20260509104044 68 10 2.0 5.0 0.00 0.00 0.00 85 1012.0
20260509103548 69 40 2.0 6.0 0.00 0.00 0.00 84 1011.9
20260509103051 69 27 2.0 7.0 0.00 0.00 0.00 84 1011.9
20260509102546 69 44 2.0 7.0 0.00 0.00 0.00 84 1011.9
20260509102045 69 44 2.0 5.0 0.00 0.00 0.00 84 1011.9
20260509101554 69 48 1.0 7.0 0.00 0.00 0.00 84 1011.7
20260509101044 69 36 2.0 7.0 0.00 0.00 0.00 83 1011.8
20260509100544 70 46 4.0 8.0 0.00 0.00 0.00 84 1011.9
20260509100048 70 12 3.0 10.0 0.00 0.00 0.00 84 1012.1
20260509095548 71 22 5.0 10.0 0.00 0.00 0.00 84 1012.1
20260509095046 71 345 4.0 8.0 0.00 0.00 0.00 84 1012.3
20260509094553 71 10 1.0 4.0 0.00 0.00 0.00 84 1011.8
20260509094048 71 0 0.0 2.0 0.00 0.00 0.00 83 1011.7
20260509093548 71 0 0.0 5.0 0.00 0.00 0.00 83 1011.8
20260509093056 71 0 0.0 8.0 0.00 0.00 0.00 83 1011.6
20260509092548 71 156 2.0 8.0 0.00 0.00 0.00 83 1011.4
20260509092048 72 155 2.0 7.0 0.00 0.00 0.00 82 1011.5
20260509091558 72 0 0.0 3.0 0.00 0.00 0.00 82 1011.9
20260509091048 72 24 0.0 3.0 0.00 0.00 0.00 81 1011.9
20260509090548 72 0 0.0 4.0 0.00 0.00 0.00 81 1011.7
20260509090106 72 0 1.0 4.0 0.00 0.00 0.00 81 1011.8
20260509085548 73 34 1.0 4.0 0.00 0.00 0.00 81 1011.9
20260509085044 73 33 2.0 4.0 0.00 0.00 0.00 81 1012.0